#timestamp,LO_Frequency,Hit,StdDev 
1588100415.3,286046996.5,Y
1588100435.1,286046998.4,P
1588100455.9,286046997.2,P
1588100475.7,286046998.0,N
1588100495.6,286046997.7,N
1588100515.4,286046997.2,Y
1588100535.2,286046999.0,P
1588100555.1,286046999.4,N
1588100556.0,286046999.4,N
1588100575.8,286046996.8,Y
1588100595.7,286046997.0,P
1588100615.5,286046999.3,N
1588100635.3,286046999.2,N
1588100655.2,286046996.5,Y
1588100675.0,286046998.2,P
1588100675.9,286046998.2,P
1588100695.8,286047001.2,P
1588100715.6,286046999.3,N
1588100735.4,286046999.2,N
1588100755.3,286046999.4,N
1588100775.1,286047001.2,N
1588100795.9,286046998.4,N
1588100815.7,286047000.7,N
1588100835.5,286047000.8,N
1588100855.4,286046999.8,N
1588100875.2,286047002.6,N
1588100895.1,286047001.9,N
1588100896.0,286047001.9,N
1588100915.8,286047004.4,Y
1588100935.6,286047003.8,P
1588100955.5,286047003.9,N
1588100975.3,286047002.3,N
1588100995.1,286047001.5,N
1588101015.9,286047002.0,N
1588101035.7,286047002.0,N
1588101055.6,286047001.7,N
1588101075.4,286047003.3,N
1588101095.2,286047003.9,Y
1588101115.1,286047000.3,P
1588101116.0,286047000.3,N
1588101135.8,286047000.4,N
1588101155.7,286047000.6,N
1588101175.5,286047000.2,N
1588101195.3,286047002.5,Y
1588101215.2,286047002.0,P
1588101235.0,286046999.7,N
1588101235.9,286046999.7,N
1588101255.8,286047002.4,N
1588101275.6,286047000.1,N
1588101295.4,286047002.5,N
1588101315.3,286047002.0,N
1588101335.1,286047002.1,N
1588101355.8,286047002.1,N
1588101375.7,286047001.7,N
1588101395.5,286047004.0,Y
1588101415.4,286047002.3,P
1588101435.2,286047001.9,P
1588101455.0,286047001.9,P
1588101456.0,286047001.9,Y
1588101475.8,286046997.3,P
1588101495.6,286046997.4,N
1588101515.5,286046998.0,N
1588101535.3,286046996.9,N
1588101555.1,286046998.9,N
1588101575.9,286047000.9,N
1588101595.7,286047000.2,N
1588101615.6,286047000.6,N
1588101635.4,286046999.1,N
1588101655.2,286046999.2,N
1588101675.1,286046998.5,N
1588101676.0,286046998.5,N
1588101695.8,286047000.7,N
1588101715.7,286046998.8,N
1588101735.5,286047001.2,N
1588101755.3,286047000.7,N
1588101775.2,286047000.0,N
1588101795.0,286047003.9,N
1588101795.9,286047003.9,N
1588101815.7,286047002.2,N
1588101835.6,286047002.8,N
1588101855.4,286047001.3,N
1588101875.3,286047003.5,N
1588101895.1,286047001.7,N
1588101896.0,286047001.7,N
1588101915.8,286047002.2,N
1588101935.7,286047000.2,N
1588101955.5,286047000.3,N
1588101975.4,286047002.7,N
1588101995.2,286047000.8,N
1588102015.0,286047000.2,N
1588102015.9,286047000.2,N
1588102035.8,286047000.0,N
1588102055.6,286047002.4,N
1588102075.4,286047001.6,N
1588102095.3,286047002.6,N
1588102115.1,286046999.7,N
1588102135.9,286047002.4,N
1588102155.7,286047001.6,N
1588102175.5,286047004.3,N
1588102195.4,286047002.3,N
1588102215.2,286047002.2,N
1588102235.1,286047001.5,N
1588102236.0,286047001.5,N
1588102255.8,286047002.3,N
1588102275.6,286047004.0,Y
1588102295.5,286047002.6,P
1588102315.3,286047002.0,P
1588102335.2,286047002.5,P
1588102355.9,286046999.7,N
1588102375.7,286047002.7,N
1588102395.6,286047002.4,N
1588102415.4,286047002.2,N
1588102435.2,286047001.3,N
1588102455.1,286047003.2,Y
1588102456.0,286047003.2,P
1588102475.8,286046999.7,N
1588102495.7,286047002.5,N
1588102515.5,286047001.9,N
1588102535.3,286047004.4,Y
1588102555.2,286047000.6,P
1588102575.0,286046999.9,N
1588102575.9,286046999.9,N
1588102595.8,286047000.9,N
1588102615.6,286046998.6,N
1588102635.4,286047001.1,N
1588102655.3,286046998.5,N
1588102675.1,286046998.6,N
1588102695.9,286047000.0,N
1588102715.7,286047000.7,N
1588102735.5,286046998.3,N
1588102755.4,286047000.8,N
1588102775.2,286046996.9,N
1588102795.0,286046996.9,N
1588102795.9,286046996.9,N
1588102815.8,286046999.8,N
1588102835.6,286047001.1,N
1588102855.5,286046995.1,Y
1588102875.3,286046998.3,P
1588102895.1,286047000.8,N
1588102915.9,286046998.3,N
1588102935.7,286046996.9,Y
1588102955.6,286046998.5,P
1588102975.4,286047001.1,N
1588102995.2,286047000.5,N
1588103015.1,286047000.1,N
1588103016.0,286047000.1,N
1588103035.8,286047000.2,N
1588103055.6,286047000.0,N
1588103075.5,286047000.0,N
1588103095.3,286047001.9,N
1588103115.2,286047002.2,N
1588103135.9,286047002.6,N
1588103155.7,286047002.5,N
1588103175.6,286046999.8,N
1588103195.4,286047002.2,N
1588103215.3,286047002.7,N
1588103235.1,286047002.3,N
1588103236.0,286047002.3,N
1588103255.8,286047002.4,N
1588103275.7,286047002.8,N
1588103295.5,286047002.5,N
1588103315.3,286047000.1,N
1588103335.2,286047000.4,N
1588103355.0,286047004.4,Y
1588103355.9,286047004.4,P
1588103375.8,286047001.5,N
1588103395.6,286047001.3,N
1588103415.4,286047000.5,N
1588103435.3,286047000.2,N
1588103455.1,286047000.6,N
1588103475.9,286047002.8,N
1588103495.7,286047002.4,N
1588103515.5,286046998.2,N
1588103535.4,286047000.8,N
1588103555.2,286046997.1,N
1588103575.0,286046997.1,N
1588103576.0,286046997.1,N
1588103595.8,286046999.0,N
1588103615.6,286047002.4,N
1588103635.5,286047004.0,N
1588103655.3,286047003.4,N
1588103675.1,286047003.8,N
1588103695.9,286047006.0,N
1588103715.7,286047003.4,N
1588103735.6,286047001.7,N
1588103755.4,286047002.5,N
1588103775.2,286047001.1,N
1588103795.1,286046999.4,N
1588103796.0,286046999.4,N
1588103815.8,286046999.9,N
1588103835.6,286047001.8,N
1588103855.5,286047005.9,N
1588103875.3,286047004.1,N
1588103895.2,286047003.8,N
1588103915.9,286047002.3,N
1588103935.7,286047001.0,N
1588103955.6,286046998.2,N
1588103975.4,286046997.2,N
1588103995.3,286046999.1,N
